Location: Newark
(46.7000°N, 60.6000°W)
Time: 23:28:49
(UTC+00:00)

Vanguard 3 - Pass Details

Date: 02 November 2020
Orbit: 508 x 3262 km, 33.3° (Epoch: 29 November)

Event Time Altitude Azimuth Distance (km) Brightness Sun altitude
Rises 13:42:29 0° 276° (W) 7,064 11.6 22.3°
Reaches altitude 10° 13:47:48 10° 268° (W) 6,168 11.4 22.8°
Maximum altitude 14:03:59 34° 214° (SW) 4,313 11.4 24.2°
Drops below altitude 10° 14:17:33 10° 158° (SSE) 5,142 13.2 25.2°
Sets 14:21:32 0° 149° (SSE) 5,797 12.8 25.4°
